Location: Unspecified
(0.0000°N, 0.0000°E)
Time: 23:34:53
(UTC+00:00)

Quakesat - Pass Details

Date: 30 July 2021
Orbit: 810 x 824 km, 98.7° (Epoch: 24 September)

Event Time Altitude Azimuth Distance (km) Brightness Sun altitude
Rises 19:11:11 0° 204° (SSW) 3,328 ? -15.3°
Reaches altitude 10° 19:14:54 10° 231° (SW) 2,395 ? -16.2°
Maximum altitude 19:17:12 13° 257° (WSW) 2,191 ? -16.8°
Drops below altitude 10° 19:19:31 10° 283° (WNW) 2,392 ? -17.3°
Sets 19:23:15 0° 310° (NW) 3,322 ? -18.2°
